Regional Weather Roundup
Issued by NWS

Home | Current Version | Previous Version | Text Only | Print | Product List | Glossary On
Versions: 1 2 3 4 5 6 7 8 9 10 11 12 13 14 15 16 17 18 19 20 21 22 23 24 25 26 27 28 29 30 31 32 33 34 35 36 37 38 39 40 41 42 43 44 45 46 47 48 49 50
000
ASUS43 KLSX 292210
RWRMO

WEATHER SUMMARY FOR MISSOURI
NATIONAL WEATHER SERVICE SPRINGFIELD MO
500 PM CDT THU SEP 29 2016

NOTE: "FAIR" INDICATES FEW OR NO CLOUDS BELOW 12,000 FEET WITH NO
       SIGNIFICANT WEATHER AND/OR OBSTRUCTIONS TO VISIBILITY.
       CURRENT SKY AND/OR WEATHER CONDITIONS ARE NOT AVAILABLE FOR
       CHILLICOTHE AND FARMINGTON.

MOZ001>031-035>038-043-044-053-054-292300-
...NORTHERN AND WESTERN MISSOURI...

CITY           SKY/WX    TMP DP  RH WIND       PRES   REMARKS
KANSAS CTY INT SUNNY     71  47  42 N10       30.29F
KANSAS C DTWN  SUNNY     73  46  38 N8        30.28F
LEE`S SUMMIT   SUNNY     72  48  42 N10       30.28F
ST JOSEPH      SUNNY     73  46  38 N12       30.30F
CHILLICOTHE      N/A     75  49  39 N8G17     30.28F
KIRKSVILLE     SUNNY     73  49  42 N15       30.24F

$$
MOZ066>068-077>081-088>096-101>105-292300-
...SOUTHWEST MISSOURI...

CITY           SKY/WX    TMP DP  RH WIND       PRES   REMARKS
SPRINGFIELD    SUNNY     72  44  36 N15       30.22F
JOPLIN         SUNNY     71  48  43 N12       30.26F
BRANSON        SUNNY     72  46  40 N14G20    30.22F

$$
MOZ032>034-039>042-045>050-055>058-069>072-292300-
...CENTRAL MISSOURI...

CITY           SKY/WX    TMP DP  RH WIND       PRES   REMARKS
COLUMBIA       SUNNY     75  49  39 NW16G25   30.20F
JEFFERSON CITY SUNNY     76  50  40 NW10      30.18F
ROLLA          MOSUNNY   72  52  49 N14G20    30.18S
SEDALIA        SUNNY     76  46  34 N14       30.25S
WHITEMAN AFB   MOSUNNY   73  48  41 N12       30.24S
OSAGE BEACH    MOSUNNY   72  53  51 N8        30.22S

$$
MOZ051-052-059>065-292300-
...EAST CENTRAL MISSOURI...

CITY           SKY/WX    TMP DP  RH WIND       PRES   REMARKS
ST LOUIS INTL  CLOUDY    68  53  58 N10       30.16S
SPIRIT OF STL  PTSUNNY   68  54  60 N6        30.16S
ST CHARLES     CLOUDY    67  56  67 N10       30.16S

$$
MOZ072>076-082>087-097>100-106>115-292300-
...SOUTH CENTRAL AND SOUTHEAST MISSOURI...

CITY           SKY/WX    TMP DP  RH WIND       PRES   REMARKS
CAPE GIRARDEAU CLOUDY    65  53  65 NW16      30.14R
FARMINGTON     CLOUDY    63  55  75 NW7       30.17F
POPLAR BLUFF   MOSUNNY   70  54  56 N14       30.14S
WEST PLAINS    MOSUNNY   72  49  44 N12G22    30.20S

$$




USA.gov is the U.S. government's official web portal to all federal, state and local government web resources and services.